WetterOnline ( https://www.wetteronline.at )

Wetter aktuell Lüchow

Aktuelles Wetter: Lüchow (18m)

6-stündlich | Neueste Meldungen
Ortszeit Temperatur Wetter
Do, 20.06. 8:00 13.4° C wolkig
Do, 20.06. 2:00 9.8° C leicht bewölkt
Mi, 19.06. 20:00 18.5° C wolkenlos
Mi, 19.06. 14:00 18.4° C wolkig
Mi, 19.06. 8:00 14.7° C Regen
Mi, 19.06. 2:00 14.5° C leichter Regen
Di, 18.06. 20:00 17.0° C Regen
Di, 18.06. 14:00 23.0° C bedeckt
Ortszeit Temperatur Wetter
Do, 20.06. 10:00 15.9° C wolkig
Do, 20.06. 9:50 15.9° C wolkig
Do, 20.06. 9:40 15.4° C bedeckt
Do, 20.06. 9:30 15.2° C wolkig
Do, 20.06. 9:20 15.2° C wolkig
Do, 20.06. 9:10 14.4° C bedeckt
Do, 20.06. 9:00 14.7° C wolkig
Do, 20.06. 8:30 14.1° C wolkig
Do, 20.06. 8:00 13.4° C wolkig
Do, 20.06. 7:30 11.9° C wolkig
Do, 20.06. 7:00 11.2° C wolkig
Ortszeit Relative Feuchte Sichtweite
Do, 20.06. 8:00 79% 35 km
Do, 20.06. 2:00 90% 60 km
Mi, 19.06. 20:00 58% >70 km
Mi, 19.06. 14:00 68% >70 km
Mi, 19.06. 8:00 94% 27 km
Mi, 19.06. 2:00 95% 5.0 km
Di, 18.06. 20:00 93% 9 km
Di, 18.06. 14:00 51% 45 km
Ortszeit Relative Feuchte Sichtweite
Do, 20.06. 10:00 60% 45 km
Do, 20.06. 9:50 60% -
Do, 20.06. 9:40 61% -
Do, 20.06. 9:30 66% 40 km
Do, 20.06. 9:20 66% -
Do, 20.06. 9:10 65% -
Do, 20.06. 9:00 68% 55 km
Do, 20.06. 8:30 70% 40 km
Do, 20.06. 8:00 79% 35 km
Do, 20.06. 7:30 88% 35 km
Do, 20.06. 7:00 88% 35 km
Ortszeit Niederschlagsmenge Niederschlagsart
Do, 20.06. 8:00 0.0 l/m2 in 12 Std. -
Do, 20.06. 2:00 0.0 l/m2 in 6 Std. -
Mi, 19.06. 20:00 0.1 l/m2 in 12 Std. -
Mi, 19.06. 14:00 0.1 l/m2 in 6 Std. Regen
Mi, 19.06. 8:00 19 l/m2 in 12 Std. Regen
Mi, 19.06. 2:00 16 l/m2 in 6 Std. Regen
Di, 18.06. 20:00 7 l/m2 in 12 Std. Regen
Di, 18.06. 14:00 0.0 l/m2 in 6 Std. -
Ortszeit Niederschlagsmenge Niederschlagsart
Do, 20.06. 10:00 0.0 l/m2 in 1 Std. -
Do, 20.06. 9:50 keine Meldung -
Do, 20.06. 9:40 keine Meldung -
Do, 20.06. 9:30 0.0 l/m2 in 30 Min -
Do, 20.06. 9:20 keine Meldung -
Do, 20.06. 9:10 keine Meldung -
Do, 20.06. 9:00 0.0 l/m2 in 1 Std. -
Do, 20.06. 8:30 0.0 l/m2 in 30 Min -
Do, 20.06. 8:00 0.0 l/m2 in 1 Std. -
Do, 20.06. 7:30 0.0 l/m2 in 30 Min -
Do, 20.06. 7:00 0.0 l/m2 in 1 Std. -
Ortszeit Stärke Spitze Richtung
km/h Bft. km/h Grad Sektor
Do, 20.06. 8:00 4 1 11 160° S
Do, 20.06. 2:00 0 0 29 - -
Mi, 19.06. 20:00 11 2 28 330° NW
Mi, 19.06. 14:00 11 2 22 330° NW
Mi, 19.06. 8:00 6 1 17 310° NW
Mi, 19.06. 2:00 7 2 35 330° NW
Di, 18.06. 20:00 13 3 20 10° N
Di, 18.06. 14:00 7 2 18 90° O
Ortszeit Stärke Spitze Richtung
km/h Bft. km/h Grad Sektor
Do, 20.06. 10:00 4 1 11 280° W
Do, 20.06. 9:50 4 1 - 280° W
Do, 20.06. 9:40 4 1 - 40° NO
Do, 20.06. 9:30 4 1 11 40° NO
Do, 20.06. 9:20 4 1 - 40° NO
Do, 20.06. 9:10 7 2 - 50° NO
Do, 20.06. 9:00 6 1 9 30° NO
Do, 20.06. 8:30 4 1 7 320° NW
Do, 20.06. 8:00 4 1 11 160° S
Do, 20.06. 7:30 7 2 11 200° S
Do, 20.06. 7:00 4 1 11 200° S
Ortszeit Untergrenze Bedeckung Gattung
total tief tief mittel hoch
Do, 20.06. 8:00 10500 m 8/8 0/8 - - -
Do, 20.06. 2:00 10500 m 4/8 0/8 - - -
Mi, 19.06. 20:00 - 0/8 0/8 - - -
Mi, 19.06. 14:00 750 m 8/8 2/8 - - -
Mi, 19.06. 8:00 150 m 8/8 8/8 - - -
Mi, 19.06. 2:00 270 m 8/8 8/8 - - -
Di, 18.06. 20:00 930 m 7/8 7/8 - - -
Di, 18.06. 14:00 3600 m 8/8 8/8 - - -
Ortszeit Bedeckungsgrad in Achtel und Wolkenuntergrenze
Do, 20.06. 10:00 2(7800m) 8(10500m)
Do, 20.06. 9:50 2(7800m) 2(8700m) 8(10500m)
Do, 20.06. 9:40 8
Do, 20.06. 9:30 8(10500m)
Do, 20.06. 9:20 8(10500m)
Do, 20.06. 9:10 8
Do, 20.06. 9:00 8(10500m)
Do, 20.06. 8:30 7(10500m)
Do, 20.06. 8:00 8(10500m)
Do, 20.06. 7:30 8(10500m)
Do, 20.06. 7:00 8(10500m)
Ortszeit Luftdruck NN (hPa) Tendenz (hPa in 3 Std.)
Do, 20.06. 8:00 1024 + 0,4
Do, 20.06. 2:00 1022 + 0,7
Mi, 19.06. 20:00 1019 + 1,3
Mi, 19.06. 14:00 1018 + 1,4
Mi, 19.06. 8:00 1015 + 1,9
Mi, 19.06. 2:00 1013 + 1,2
Di, 18.06. 20:00 1011 - 1,3
Di, 18.06. 14:00 1015 - 1,1
Ortszeit Luftdruck NN (hPa) Tendenz (hPa in 3 Std.)
Do, 20.06. 10:00 1023 - 0,8
Do, 20.06. 9:50 1023 keine Meldung
Do, 20.06. 9:40 1023 keine Meldung
Do, 20.06. 9:30 1023 - 0,2
Do, 20.06. 9:20 1023 keine Meldung
Do, 20.06. 9:10 1023 keine Meldung
Do, 20.06. 9:00 1024 - 0,2
Do, 20.06. 8:30 1024 0,0
Do, 20.06. 8:00 1024 + 0,4
Do, 20.06. 7:30 1024 + 1,2
Do, 20.06. 7:00 1024 + 1,3
Ortszeit Schneehöhe (cm)
Do, 20.06. 8:00 0
Do, 20.06. 2:00 0
Mi, 19.06. 20:00 0
Mi, 19.06. 14:00 0
Mi, 19.06. 8:00 0
Mi, 19.06. 2:00 0
Di, 18.06. 20:00 0
Di, 18.06. 14:00 0
Ortszeit Schneehöhe (cm)
Do, 20.06. 10:00 0
Do, 20.06. 9:50 0
Do, 20.06. 9:40 -
Do, 20.06. 9:30 0
Do, 20.06. 9:20 0
Do, 20.06. 9:10 -
Do, 20.06. 9:00 0
Do, 20.06. 8:30 0
Do, 20.06. 8:00 0
Do, 20.06. 7:30 0
Do, 20.06. 7:00 0
Link zu dieser Seite / Seite empfehlen

Das Wetter in ...